Regional Weather Roundup
Issued by NWS Goodland, KS

Home | Current Version | Previous Version | Graphics & Text | Print | Product List | Glossary On
Versions: 1 2 3 4 5 6 7 8 9 10 11 12 13 14 15 16 17 18 19 20 21 22 23 24 25 26 27 28 29 30 31 32 33 34 35 36 37 38 39 40 41 42 43 44 45 46 47 48 49 50
000
ASUS43 KGLD 202259
RWRGLD

GOODLAND FORECAST AREA HOURLY WEATHER ROUNDUP
NATIONAL WEATHER SERVICE GOODLAND KS
500 PM MDT FRI OCT 20 2017

...OFFICIAL OBSERVATIONS...

CITY           SKY/WX    TMP DP  RH WIND       PRES   REMARKS
GOODLAND KS    SUNNY     77  45  32 S16G28    29.54S
HILL CITY KS   CLEAR     77  55  46 S28G41    29.58F
IMPERIAL NEB   CLEAR     79  40  24 S17G23    29.50F
MCCOOK NEB     CLEAR     76  51  41 S29G43    29.51F
AKRON CO       SUNNY     74  33  22 E9        29.54F
BURLINGTON CO  SUNNY     78  37  22 S21G31    29.56F
LIMON CO       SUNNY     74  29  19 S21G28    29.59F
$$

...UNOFFICIAL OBSERVATIONS...

CITY           SKY/WX    TMP DP  RH WIND       PRES   REMARKS
LENORA KS        N/A     79  32  18 S15G22      N/A
NORTON KS      CLEAR     75  48  38 SE21G33   29.56F
SHARON SPRINGS   N/A     78  46  32 S20         N/A
TRENTON NEB      N/A     79  32  18 S15G22      N/A
YUMA CO        FAIR      75  16  10 SE3       29.52F
$$



USA.gov is the U.S. government's official web portal to all federal, state and local government web resources and services.